This is the latest recevied weather packets stored in our database for station/object 7M1JBF-11. If no packets are shown the sender has not sent any weather packets the latest 10 day(s).
| Time | Temp. | Humidity | Pressure | Rain* | Wind** | Luminosity | Snow |
|---|---|---|---|---|---|---|---|
| 1777579402 | 11.67° C | 100% | 1011.9 hPa | 7.37 mm | - | - | - |
| 1777578800 | 11.67° C | 100% | 1012.2 hPa | 6.86 mm | - | - | - |
| 1777578199 | 11.67° C | 100% | 1012.9 hPa | 6.35 mm | - | - | - |
| 1777577598 | 11.67° C | 100% | 1013.4 hPa | 6.1 mm | - | - | - |
| 1777576996 | 12.22° C | 100% | 1013.7 hPa | 5.84 mm | - | - | - |
| 1777576395 | 11.67° C | 100% | 1013.8 hPa | 5.08 mm | - | - | - |
| 1777575794 | 12.22° C | 100% | 1014.1 hPa | 4.57 mm | - | - | - |
| 1777575192 | 12.22° C | 100% | 1014.4 hPa | 4.32 mm | - | - | - |
| 1777574591 | 12.22° C | 100% | 1014.5 hPa | 3.81 mm | - | - | - |
| 1777573388 | 12.22° C | 100% | 1014.7 hPa | 2.29 mm | - | - | - |
| 1777572787 | 12.22° C | 100% | 1014.6 hPa | 2.03 mm | - | - | - |
| 1777572186 | 12.22° C | 100% | 1014.5 hPa | 2.03 mm | - | - | - |
| 1777571584 | 12.22° C | 100% | 1014.5 hPa | 2.03 mm | - | - | - |
| 1777570983 | 12.22° C | 100% | 1014.6 hPa | 2.03 mm | - | - | - |
| 1777570381 | 12.22° C | 100% | 1014.7 hPa | 2.03 mm | - | - | - |
| 1777569780 | 12.22° C | 100% | 1014.7 hPa | 2.03 mm | - | - | - |
| 1777569179 | 12.22° C | 100% | 1015.3 hPa | 2.03 mm | - | - | - |
| 1777568577 | 12.22° C | 100% | 1015.4 hPa | 1.78 mm | - | - | - |
| 1777567976 | 12.22° C | 100% | 1015.8 hPa | 1.78 mm | - | - | - |
| 1777567375 | 12.22° C | 100% | 1016.2 hPa | 1.52 mm | - | - | - |
| 1777566773 | 12.22° C | 100% | 1016.1 hPa | 1.52 mm | - | - | - |
| 1777566172 | 12.22° C | 100% | 1016.2 hPa | 1.27 mm | - | - | - |
| 1777565570 | 12.22° C | 100% | 1016.5 hPa | 1.27 mm | - | - | - |
| 1777564969 | 12.78° C | 100% | 1016.7 hPa | 1.02 mm | - | - | - |
| 1777563767 | 12.78° C | 100% | 1017.2 hPa | 0.51 mm | - | - | - |
* Rain since midnight (hover to see other rain measurements)
** Current wind speed in m/s (hover to see current wind gust speed)